CW1839 Weather Reports


time (UTC)temp
C
wind
direction
speed
KPH
gust
KPH
rain 1hr
cm
rain 24hr
cm
rain mn
cm
humidity
%
barometer
mb
20210518190003 17 0 1.6 0.0 0.00 0.00 0.00 67 1010.7
20210518181506 19 21 1.6 0.0 0.00 0.00 0.00 62 1010.3
20210518164505 22 44 4.8 0.0 0.00 0.00 0.00 49 1010.2
20210518153119 23 64 4.8 0.0 0.00 0.00 0.00 44 1010.3
20210518151501 23 59 6.4 0.0 0.00 0.00 0.00 44 1010.3
20210518141501 23 42 8.0 0.0 0.00 0.00 0.00 43 1010.3
20210518134501 23 62 8.0 0.0 0.00 0.00 0.00 43 1010.3
20210518131504 23 75 9.7 0.0 0.00 0.00 0.00 45 1010.5
20210518124506 23 69 9.7 0.0 0.00 0.00 0.00 46 1010.6
20210518120027 23 83 9.7 0.0 0.00 0.00 0.00 48 1010.6
20210518114508 23 86 9.7 0.0 0.00 0.00 0.00 47 1010.7
20210518111511 23 75 12.9 0.0 0.00 0.00 0.00 48 1010.6
20210518104505 23 61 9.7 0.0 0.00 0.00 0.00 48 1010.7
20210518103040 23 80 8.0 0.0 0.00 0.00 0.00 52 1010.6
20210518101505 23 88 6.4 0.0 0.00 0.00 0.00 52 1010.6
20210518091531 22 96 1.6 0.0 0.00 0.00 0.00 52 1010.5
20210518084555 21 103 1.6 0.0 0.00 0.00 0.00 53 1010.3
20210518083017 21 109 3.2 0.0 0.00 0.00 0.00 54 1010.1
20210518081505 21 131 1.6 0.0 0.00 0.00 0.00 54 1010.1
20210518080050 21 154 1.6 0.0 0.00 0.00 0.00 57 1010.1
20210518071513 20 147 1.6 0.0 0.00 0.00 0.00 58 1010.0
20210518070003 20 154 1.6 0.0 0.00 0.00 0.00 56 1010.1
20210518063003 20 124 0.0 0.0 0.00 0.00 0.00 57 1010.0
20210518060004 18 332 0.0 0.0 0.00 0.00 0.00 60 1009.6
20210518053012 17 0 0.0 0.0 0.00 0.00 0.00 62 1009.6
20210518051506 17 0 0.0 0.0 0.00 0.00 0.00 67 1009.5
20210518044512 16 342 0.0 0.0 0.00 0.00 0.00 71 1009.2
20210518041503 16 0 0.0 0.0 0.00 0.00 0.00 74 1008.6
20210518040017 16 356 1.6 0.0 0.00 0.00 0.00 74 1008.4
20210518033047 17 299 0.0 0.0 0.00 0.00 0.00 72 1008.1
20210518031510 17 296 0.0 0.0 0.00 0.00 0.00 72 1008.0
20210518030017 17 264 0.0 0.0 0.00 0.00 0.00 71 1007.9
20210518023018 17 227 1.6 0.0 0.00 0.00 0.00 71 1007.6
20210518021506 17 247 0.0 0.0 0.00 0.00 0.00 70 1007.6
20210518020025 17 220 1.6 0.0 0.00 0.00 0.00 70 1007.5
20210518013030 18 229 0.0 0.0 0.00 0.00 0.00 68 1007.7
20210518011515 18 227 0.0 0.0 0.00 0.00 0.00 68 1007.7
20210518010010 18 229 0.0 0.0 0.00 0.00 0.00 68 1007.6
20210518004508 18 229 1.6 0.0 0.00 0.00 0.00 67 1007.6
20210517234508 18 181 0.0 0.0 0.00 0.00 0.00 70 1007.7
20210517233008 18 106 0.0 0.0 0.00 0.00 0.00 69 1007.9
20210517220049 19 106 0.0 0.0 0.00 0.00 0.00 68 1008.2
20210517214549 19 106 0.0 0.0 0.00 0.00 0.00 67 1008.1
20210517213014 19 106 0.0 0.0 0.00 0.00 0.00 66 1008.3
20210517210011 19 89 0.0 0.0 0.00 0.00 0.00 67 1008.4
20210517203035 20 89 0.0 0.0 0.00 0.00 0.00 66 1008.4
20210517200018 20 89 0.0 0.0 0.00 0.00 0.00 64 1008.2